[[{"header":{"parameterUnit":"m.s-1","parameterCategory":1,"la1":30.2991,"la2":30.254,"lo1":-89.0895,"lo2":-89.0444,"dy":0.0017,"dx":0.0017,"nx":28,"ny":28,"refTime":"2024-02-12T09:00:00:Z","depth":0,"parameterNumber":2,"parameterNumberName":"U-component_of_WINDS"},"data":[0,0,0,0,0,0,0,0,0,0,0,0,0,0,0,0,0,0,0,0,0,0,0,0,0,0,0,0,0,0,0,0,0,0,0,0,0,0,0,0,0,0,0,0,0,0,0,0,0,0,0,0,0,0,0,0,0,0,-0.3423,-0.3423,0,-0.3469,-0.347,-0.347,-0.344,-0.3439,-0.3438,-0.3436,-0.3486,-0.3489,-0.3492,0,0,0,0,0,0,0,0,0,0,0,0,0,-0.331,-0.3312,-0.3423,-0.3423,-0.3424,-0.3469,-0.347,-0.347,-0.3441,-0.3439,-0.3437,-0.3436,-0.3486,-0.3489,-0.3492,0,0,0,0,0,0,0,0,0,0,0,0,0,-0.3358,-0.3313,-0.3423,-0.3414,-0.3414,-0.3469,-0.347,-0.3471,-0.3441,-0.3439,-0.3437,-0.3435,-0.3484,-0.3488,-0.3492,-0.3559,0,0,-0.3504,-0.3506,0,0,0,0,0,0,0,0,-0.3355,-0.3362,-0.3415,-0.3415,-0.3415,-0.3447,-0.3448,-0.35,-0.3442,-0.3431,-0.3436,-0.3434,-0.3475,-0.348,-0.3493,-0.3561,-0.3563,-0.3505,-0.3507,-0.3509,-0.351,0,0,0,0,0,0,0,-0.3352,-0.336,-0.3441,-0.3416,-0.3416,-0.3409,-0.3414,-0.3458,-0.3464,-0.3432,-0.343,-0.3435,-0.3475,-0.3489,-0.3494,-0.3564,-0.3505,-0.3508,-0.351,-0.3512,-0.3689,-0.3691,0,0,0,0,0,0,-0.3349,-0.3357,-0.344,-0.3443,-0.3379,-0.3413,-0.3418,-0.3439,-0.3464,-0.3465,-0.3437,-0.3434,-0.3484,-0.3489,-0.3496,-0.3576,-0.3509,-0.3512,-0.3515,-0.3687,-0.369,-0.3692,0,0,0,0,0,0,-0.3347,-0.3357,-0.3438,-0.3399,-0.3409,-0.3417,-0.3441,-0.3441,-0.3455,-0.3468,-0.3469,-0.3451,-0.3482,-0.349,-0.3543,-0.3577,-0.3514,-0.3518,-0.3684,-0.3688,-0.3691,-0.3737,0,0,0,0,0,0,-0.3344,-0.3356,-0.3381,-0.34,-0.3411,-0.3484,-0.3443,-0.3443,-0.3462,-0.3458,-0.3481,-0.3483,-0.3481,-0.3537,-0.3547,-0.3582,-0.3521,-0.3681,-0.3686,-0.369,-0.3732,-0.3741,-0.3749,0,0,0,0,0,-0.334,-0.3392,-0.3382,-0.3392,-0.3443,-0.3486,-0.3493,-0.3489,-0.3465,-0.3491,-0.3498,-0.3482,-0.3571,-0.3543,-0.3554,-0.359,-0.3679,-0.3684,-0.3689,-0.3728,-0.374,-0.3749,0,0,0,0,0,0,-0.3378,-0.3395,-0.3384,-0.3444,-0.3464,-0.3481,-0.3513,-0.3501,-0.3528,-0.3524,-0.3519,-0.3524,-0.358,-0.359,-0.3558,-0.3656,-0.3622,-0.3629,-0.3648,-0.3658,-0.3666,-0.3664,-0.3524,0,0,0,0,0,-0.3393,-0.3426,-0.3439,-0.3491,-0.3502,-0.3506,-0.3525,-0.352,-0.354,-0.3549,-0.3561,-0.3582,-0.3615,-0.3637,-0.3667,-0.3733,-0.3738,-0.3763,-0.3771,-0.3778,-0.3785,-0.3822,-0.3833,-0.3709,-0.3709,-0.3709,0,0,-0.3425,-0.3439,-0.346,-0.3499,-0.3514,-0.355,-0.3513,-0.3552,-0.3579,-0.3555,-0.3606,-0.3615,-0.3639,-0.3698,-0.3725,-0.3709,-0.382,-0.3785,-0.379,-0.3794,-0.3828,-0.384,-0.385,-0.3713,-0.3712,-0.3712,0,0,-0.3502,-0.3515,-0.356,-0.3576,-0.3598,-0.36,-0.3611,-0.363,-0.3635,-0.3686,-0.3669,-0.3701,-0.3757,-0.3775,-0.3791,-0.3874,-0.3861,-0.3884,-0.3929,-0.3965,-0.3974,-0.3983,-0.4014,-0.4025,-0.3891,-0.3891,-0.3891,0,-0.354,-0.3592,-0.3585,-0.3626,-0.3644,-0.3623,-0.3669,-0.3685,-0.3716,-0.373,-0.371,-0.3781,-0.3795,-0.3859,-0.3879,-0.3892,-0.3905,-0.3883,-0.3973,-0.3982,-0.399,-0.402,-0.4031,-0.3894,-0.3894,-0.3893,-0.3893,0,-0.3638,-0.3674,-0.3708,-0.3739,-0.3761,-0.3804,-0.3804,-0.3827,-0.382,-0.3825,-0.3877,-0.3893,-0.3927,-0.3941,-0.3935,-0.4005,-0.3994,-0.3974,-0.394,-0.4005,-0.4033,-0.4044,-0.3898,-0.3897,-0.3896,-0.3895,0,0,-0.3742,-0.3768,-0.3781,-0.3795,-0.3817,-0.3846,-0.3888,-0.392,-0.3941,-0.3963,-0.3999,-0.4047,-0.4029,-0.4047,-0.4043,-0.4073,-0.414,-0.405,-0.405,-0.4067,-0.4219,-0.4235,-0.4248,-0.413,-0.4132,-0.4134,-0.4217,0,-0.3822,-0.3896,-0.389,-0.396,-0.3994,-0.3974,-0.4011,-0.4029,-0.4034,-0.4065,-0.407,-0.4105,-0.4077,-0.4088,-0.4118,-0.4126,-0.417,-0.4119,-0.4165,-0.4167,-0.4162,-0.4263,-0.428,-0.4358,-0.4228,-0.423,-0.4231,0,-0.3926,-0.3951,-0.4024,-0.4042,-0.4056,-0.4089,-0.4119,-0.4147,-0.4168,-0.4169,-0.419,-0.418,-0.4223,-0.4186,-0.4246,-0.4212,-0.423,-0.4236,-0.4239,-0.4245,-0.4204,-0.4273,-0.4383,-0.4395,-0.4248,-0.4247,-0.4245,0,-0.3997,-0.4049,-0.4099,-0.4111,-0.4133,-0.4157,-0.4168,-0.4186,-0.4206,-0.4232,-0.4245,-0.4275,-0.4293,-0.4317,-0.4316,-0.4289,-0.4377,-0.434,-0.4381,-0.4381,-0.4402,-0.4401,-0.4519,-0.4411,-0.441,-0.441,-0.441,0,-0.4088,-0.4133,-0.4131,-0.4163,-0.4214,-0.4207,-0.4258,-0.4265,-0.4282,-0.4315,-0.4299,-0.433,-0.4326,-0.4358,-0.4357,-0.4407,-0.4415,-0.4418,-0.4418,-0.4421,-0.4421,-0.4434,-0.443,-0.4413,-0.4413,-0.4412,-0.4412,0,-0.4176,-0.4177,-0.4231,-0.4247,-0.4252,-0.4289,-0.4302,-0.4332,-0.4335,-0.4377,-0.4387,-0.4392,-0.4428,-0.4429,-0.4471,-0.447,-0.4533,-0.4525,-0.4526,-0.4525,-0.4567,-0.4564,-0.4698,-0.4716,-0.4595,-0.4596,-0.4597,0,-0.4236,-0.427,-0.429,-0.431,-0.4322,-0.4355,-0.4375,-0.437,-0.4392,-0.4417,-0.4445,-0.4479,-0.4507,-0.4566,-0.4574,-0.4606,-0.46,-0.4645,-0.4605,-0.4607,-0.4603,-0.4602,-0.4606,-0.4654,-0.4655,-0.4656,-0.4657,0,-0.4341,-0.4339,-0.4369,-0.4398,-0.4422,-0.4446,-0.4467,-0.4485,-0.4482,-0.4507,-0.4544,-0.4565,-0.4607,-0.4643,-0.4673,-0.4684,-0.4671,-0.4669,-0.4681,-0.4685,-0.4685,-0.4687,-0.4549,-0.4667,-0.4666,-0.4665,-0.4665,-0.4664,-0.4418,-0.4448,-0.4467,-0.45,-0.4515,-0.4535,-0.4565,-0.4571,-0.4601,-0.4635,-0.463,-0.4671,-0.469,-0.473,-0.4744,-0.4776,-0.4761,-0.4777,-0.4782,-0.4786,-0.4792,-0.4678,-0.4782,-0.4781,-0.4781,-0.4781,-0.4781,0,-0.4524,-0.4535,-0.4565,-0.4595,-0.4622,-0.4605,-0.4628,-0.4651,-0.4688,-0.4707,-0.4734,-0.4776,-0.481,-0.482,-0.4853,-0.4877,-0.4872,-0.4886,-0.4885,-0.4888,-0.4803,-0.479,-0.489,-0.489,-0.489,-0.489,-0.489,-0.489,-0.4583,-0.4633,-0.4634,-0.4692,-0.4702,-0.4742,-0.4757,-0.4775,-0.4791,-0.4839,-0.4866,-0.4872,-0.4888,-0.4921,-0.4952,-0.4954,-0.4968,-0.4985,-0.4985,-0.4905,-0.4894,-0.4884,-0.4872,-0.4987,-0.4987,-0.5068,-0.5068,-0.5069]},{"header":{"parameterUnit":"m.s-1","parameterCategory":1,"la1":30.2991,"la2":30.254,"lo1":-89.0895,"lo2":-89.0444,"dy":0.0017,"dx":0.0017,"nx":28,"ny":28,"refTime":"2024-02-12T09:00:00:Z","depth":0,"parameterNumber":3,"parameterNumberName":"V-component_of_WINDS"},"data":[0,0,0,0,0,0,0,0,0,0,0,0,0,0,0,0,0,0,0,0,0,0,0,0,0,0,0,0,0,0,0,0,0,0,0,0,0,0,0,0,0,0,0,0,0,0,0,0,0,0,0,0,0,0,0,0,0,0,-3.5633,-3.5634,0,-3.5774,-3.5776,-3.5777,-3.574,-3.5737,-3.5734,-3.5731,-3.5874,-3.588,-3.5887,0,0,0,0,0,0,0,0,0,0,0,0,0,-3.5329,-3.5335,-3.5633,-3.5634,-3.5636,-3.5774,-3.5776,-3.5778,-3.574,-3.5737,-3.5733,-3.573,-3.5872,-3.5879,-3.5887,0,0,0,0,0,0,0,0,0,0,0,0,0,-3.5465,-3.5337,-3.5632,-3.5634,-3.5636,-3.5773,-3.5776,-3.5778,-3.5741,-3.5737,-3.5732,-3.5728,-3.5869,-3.5879,-3.5888,-3.6032,0,0,-3.5918,-3.5922,0,0,0,0,0,0,0,0,-3.5457,-3.5476,-3.5632,-3.5634,-3.5636,-3.5735,-3.5721,-3.5863,-3.5742,-3.5701,-3.5731,-3.5726,-3.5831,-3.5843,-3.5879,-3.6039,-3.6045,-3.5918,-3.5924,-3.5928,-3.5931,0,0,0,0,0,0,0,-3.5448,-3.5469,-3.5688,-3.5634,-3.5637,-3.5627,-3.5642,-3.5748,-3.5788,-3.5704,-3.5702,-3.5719,-3.5831,-3.587,-3.5882,-3.6047,-3.5918,-3.5927,-3.5933,-3.5936,-3.6332,-3.6337,0,0,0,0,0,0,-3.5437,-3.5462,-3.5684,-3.5693,-3.5534,-3.5636,-3.5653,-3.5707,-3.5787,-3.5795,-3.5723,-3.5717,-3.5856,-3.5871,-3.5887,-3.6062,-3.5928,-3.5937,-3.5943,-3.6328,-3.6334,-3.6339,0,0,0,0,0,0,-3.543,-3.5457,-3.5678,-3.5577,-3.5604,-3.5646,-3.5708,-3.5712,-3.5751,-3.5801,-3.5807,-3.5755,-3.5853,-3.5874,-3.5997,-3.6066,-3.5942,-3.5951,-3.6322,-3.633,-3.6336,-3.6411,0,0,0,0,0,0,-3.5422,-3.5455,-3.551,-3.5578,-3.561,-3.5786,-3.5712,-3.5718,-3.5768,-3.5762,-3.5833,-3.584,-3.5851,-3.5983,-3.6006,-3.6077,-3.5958,-3.6316,-3.6325,-3.6334,-3.6403,-3.642,-3.6435,0,0,0,0,0,-3.5411,-3.5525,-3.5513,-3.554,-3.568,-3.579,-3.5808,-3.5819,-3.5774,-3.583,-3.5862,-3.5838,-3.6054,-3.5995,-3.6022,-3.6097,-3.6312,-3.6323,-3.6333,-3.6396,-3.6417,-3.6435,0,0,0,0,0,0,-3.5464,-3.5534,-3.5522,-3.5661,-3.572,-3.5784,-3.5855,-3.5841,-3.5913,-3.5904,-3.5914,-3.593,-3.6057,-3.6088,-3.6022,-3.624,-3.6176,-3.6193,-3.6215,-3.6236,-3.6251,-3.6241,-3.5966,0,0,0,0,0,-3.5491,-3.5576,-3.5632,-3.575,-3.578,-3.5813,-3.5861,-3.5864,-3.5925,-3.595,-3.5991,-3.605,-3.6132,-3.6185,-3.6263,-3.6407,-3.6422,-3.6472,-3.6487,-3.65,-3.6515,-3.6594,-3.6617,-3.6374,-3.6374,-3.6373,0,0,-3.555,-3.5599,-3.5651,-3.5762,-3.5808,-3.5895,-3.5834,-3.5928,-3.5992,-3.5964,-3.6083,-3.6115,-3.6182,-3.6317,-3.6378,-3.6348,-3.6585,-3.6514,-3.6524,-3.6532,-3.6608,-3.6631,-3.6651,-3.6381,-3.638,-3.6378,0,0,-3.5701,-3.5746,-3.585,-3.5897,-3.5968,-3.5989,-3.6014,-3.608,-3.61,-3.622,-3.6201,-3.6277,-3.6417,-3.6466,-3.6509,-3.668,-3.6661,-3.6705,-3.6789,-3.6866,-3.6885,-3.6902,-3.6964,-3.6986,-3.6718,-3.6719,-3.6719,0,-3.5764,-3.5895,-3.5904,-3.6001,-3.605,-3.603,-3.6135,-3.618,-3.6272,-3.6307,-3.6271,-3.6447,-3.6491,-3.6637,-3.6679,-3.6714,-3.6743,-3.6697,-3.6882,-3.6899,-3.6915,-3.6974,-3.6997,-3.6724,-3.6723,-3.6723,-3.6722,0,-3.597,-3.6061,-3.6136,-3.6227,-3.6284,-3.6384,-3.6409,-3.6466,-3.6465,-3.6489,-3.6612,-3.6663,-3.6751,-3.6786,-3.6785,-3.6933,-3.6912,-3.6879,-3.6815,-3.6943,-3.6999,-3.7021,-3.6731,-3.6729,-3.6727,-3.6726,0,0,-3.6158,-3.6253,-3.6281,-3.6322,-3.6399,-3.6469,-3.6568,-3.6655,-3.6705,-3.6769,-3.6853,-3.6972,-3.6942,-3.6991,-3.6995,-3.7063,-3.7196,-3.7022,-3.7024,-3.7054,-3.7363,-3.7388,-3.7414,-3.7184,-3.7188,-3.7191,-3.7358,0,-3.6316,-3.6492,-3.6504,-3.6663,-3.6747,-3.6728,-3.6815,-3.6871,-3.6897,-3.6971,-3.6999,-3.7084,-3.7038,-3.7068,-3.7134,-3.7166,-3.7258,-3.7154,-3.7262,-3.7265,-3.7247,-3.7443,-3.7469,-3.7623,-3.7379,-3.7383,-3.7385,0,-3.6525,-3.6597,-3.6764,-3.683,-3.6866,-3.6943,-3.7025,-3.7096,-3.716,-3.7173,-3.7229,-3.7224,-3.7325,-3.7257,-3.7397,-3.7326,-3.7371,-3.7393,-3.7399,-3.741,-3.7334,-3.746,-3.7673,-3.7696,-3.742,-3.7417,-3.7414,0,-3.6646,-3.6785,-3.6903,-3.6939,-3.7019,-3.7074,-3.7109,-3.7168,-3.722,-3.7291,-3.7325,-3.7406,-3.745,-3.7513,-3.753,-3.7479,-3.767,-3.7603,-3.7684,-3.7684,-3.7726,-3.7724,-3.795,-3.7754,-3.7753,-3.7753,-3.7752,0,-3.6823,-3.6926,-3.6959,-3.7032,-3.7148,-3.716,-3.7274,-3.7305,-3.7359,-3.7437,-3.7425,-3.7499,-3.7516,-3.7593,-3.7607,-3.7721,-3.7741,-3.7755,-3.7758,-3.7757,-3.7755,-3.7787,-3.7777,-3.7759,-3.7758,-3.7756,-3.7755,0,-3.6979,-3.7005,-3.7133,-3.7198,-3.7217,-3.7299,-3.7354,-3.7424,-3.7448,-3.7548,-3.7572,-3.7609,-3.77,-3.7722,-3.7829,-3.7839,-3.7974,-3.7966,-3.7953,-3.7953,-3.8034,-3.8026,-3.8289,-3.8325,-3.8104,-3.8106,-3.8108,0,-3.709,-3.7169,-3.7243,-3.7296,-3.7334,-3.7418,-3.7471,-3.7486,-3.7542,-3.7621,-3.7681,-3.777,-3.7842,-3.7987,-3.8024,-3.8106,-3.81,-3.8186,-3.8112,-3.8109,-3.8102,-3.8098,-3.8106,-3.8201,-3.8203,-3.8205,-3.8207,0,-3.7285,-3.7294,-3.7372,-3.7455,-3.7519,-3.7585,-3.7647,-3.7691,-3.7714,-3.7777,-3.787,-3.7926,-3.8036,-3.8125,-3.8208,-3.8243,-3.823,-3.823,-3.8253,-3.8254,-3.8244,-3.8251,-3.7993,-3.8224,-3.8222,-3.8221,-3.822,-3.8219,-3.7423,-3.7493,-3.7556,-3.7644,-3.7692,-3.7752,-3.7821,-3.7854,-3.7932,-3.8023,-3.8027,-3.8128,-3.8189,-3.83,-3.834,-3.8419,-3.8393,-3.8426,-3.8435,-3.8443,-3.8451,-3.823,-3.8434,-3.8433,-3.8433,-3.8432,-3.8432,0,-3.7618,-3.7658,-3.7738,-3.7827,-3.7896,-3.7877,-3.7946,-3.8004,-3.8094,-3.8152,-3.8224,-3.8331,-3.8417,-3.846,-3.8545,-3.86,-3.8596,-3.8622,-3.8619,-3.8627,-3.8469,-3.8441,-3.8624,-3.8624,-3.8624,-3.8624,-3.8624,-3.8624,-3.7728,-3.7846,-3.7863,-3.8005,-3.8044,-3.8144,-3.8185,-3.8239,-3.8287,-3.8407,-3.8479,-3.8507,-3.8559,-3.8648,-3.8726,-3.8737,-3.8769,-3.8799,-3.8806,-3.8658,-3.8638,-3.862,-3.8593,-3.8806,-3.8806,-3.8958,-3.8959,-3.8961]}]]